Pinopolis, SC

1:04 AM EDT on September 27, 2016 (GMT -0400)
Moncks Corner

Weather History for KMKS - August, 2013

Change the Weather History Date:

Monday, August 26, 2013

  Actual Average (KCHS) Record (KCHS)
Temperature  
Mean Temperature 75 °F 80 °F  
Max Temperature 84 °F 89 °F 97 °F (1954)
Min Temperature 66 °F 72 °F 60 °F (1952)
Degree Days  
Heating Degree Days 0 0  
Month to date heating degree days 0  
Since 1 June heating degree days 1  
Since 1 July heating degree days 0  
Cooling Degree Days 10 15  
Month to date cooling degree days 420  
Year to date cooling degree days 1732  
Since 1 June cooling degree days 1370  
Growing Degree Days 25 (Base 50)    
Moisture  
Dew Point 67 °F    
Average Humidity 77    
Maximum Humidity 100    
Minimum Humidity 58    
Precipitation  
Precipitation 0.00 in 0.26 in 3.26 in (1958)
Month to date precipitation 5.92  
Year to date precipitation 34.41  
Sea Level Pressure  
Sea Level Pressure 30.21 in    
Wind  
Wind Speed 5 mph (NNE)    
Max Wind Speed 9 mph    
Max Gust Speed -    
Visibility 10 miles    
Events      
T = Trace of Precipitation, MM = Missing Value Source: NWS Daily Summary

Daily Weather History Graph

Daily Weather History Graph

Search for Another Location

Airport or City:

Trip Planner

Search our weather history database for the weather conditions in past years. The results will help you decide how hot, cold, wet, or windy it might be!

Date:

Astronomy

Aug. 26, 2013 Rise Set
Actual Time 6:50 AM EDT 7:52 PM EDT
Civil Twilight 6:25 AM EDT 8:18 PM EDT
Nautical Twilight 5:54 AM EDT 8:48 PM EDT
Astronomical Twilight 5:23 AM EDT 9:19 PM EDT
Moon 11:23 PM EDT (8/26) 12:29 PM EDT (8/26)
Length of Visible Light 13h 52m
Length of Day
13h 01m
Waning Gibbous, 67% of the Moon is Illuminated
Aug 26
Waning Gibbous
Aug 28
Last Quarter
Sep 5
New
Sep 12
First Quarter
Sep 19
Full

Hourly Weather History & Observations

Time (EDT) Temp. Heat Index Dew Point Humidity Pressure Visibility Wind Dir Wind Speed Gust Speed Precip Events Conditions
12:15 AM 69.8 °F - 64.4 °F 83% 30.28 in 10.0 mi NE 3.5 mph - N/A   Clear
12:35 AM 69.8 °F - 64.4 °F 83% 30.27 in 10.0 mi NE 4.6 mph - N/A   Clear
12:55 AM 71.6 °F - 64.4 °F 78% 30.27 in 10.0 mi NE 5.8 mph - N/A   Scattered Clouds
1:15 AM 71.6 °F - 64.4 °F 78% 30.27 in 10.0 mi NNE 5.8 mph - N/A   Scattered Clouds
1:35 AM 71.6 °F - 64.4 °F 78% 30.26 in 10.0 mi NE 5.8 mph - N/A   Clear
1:55 AM 69.8 °F - 62.6 °F 78% 30.26 in 10.0 mi NNE 5.8 mph - N/A   Clear
2:15 AM 69.8 °F - 64.4 °F 83% 30.26 in 7.0 mi NE 6.9 mph - N/A   Scattered Clouds
2:35 AM 69.8 °F - 64.4 °F 83% 30.25 in 10.0 mi NNE 5.8 mph - N/A   Clear
2:55 AM 69.8 °F - 64.4 °F 83% 30.25 in 10.0 mi NE 6.9 mph - N/A   Clear
3:15 AM 69.8 °F - 64.4 °F 83% 30.25 in 10.0 mi NE 8.1 mph - N/A   Clear
3:35 AM 69.8 °F - 64.4 °F 83% 30.25 in 10.0 mi NE 8.1 mph - N/A   Clear
3:55 AM 69.8 °F - 64.4 °F 83% 30.25 in 10.0 mi NNE 6.9 mph - N/A   Clear
4:15 AM 68.0 °F - 64.4 °F 88% 30.25 in 10.0 mi NE 5.8 mph - N/A   Clear
4:35 AM 68.0 °F - 64.4 °F 88% 30.24 in 10.0 mi NNE 5.8 mph - N/A   Clear
4:55 AM 68.0 °F - 64.4 °F 88% 30.24 in 10.0 mi NE 6.9 mph - N/A   Scattered Clouds
5:15 AM 68.0 °F - 64.4 °F 88% 30.24 in 10.0 mi NE 5.8 mph - N/A   Mostly Cloudy
5:35 AM 68.0 °F - 66.2 °F 94% 30.24 in 10.0 mi NNE 4.6 mph - N/A   Overcast
5:55 AM 68.0 °F - 66.2 °F 94% 30.24 in 7.0 mi NE 5.8 mph - N/A   Overcast
6:15 AM 68.0 °F - 66.2 °F 94% 30.24 in 10.0 mi NNE 4.6 mph - N/A   Overcast
6:35 AM 68.0 °F - 66.2 °F 94% 30.24 in 10.0 mi Calm Calm - N/A   Mostly Cloudy
6:55 AM 68.0 °F - 66.2 °F 94% 30.24 in 10.0 mi Calm Calm - N/A   Mostly Cloudy
7:15 AM 68.0 °F - 64.4 °F 88% 30.24 in 10.0 mi Calm Calm - N/A   Scattered Clouds
7:35 AM 66.2 °F - 64.4 °F 94% 30.24 in 10.0 mi Calm Calm - N/A   Clear
7:55 AM 68.0 °F - 64.4 °F 88% 30.24 in 10.0 mi North 3.5 mph - N/A   Clear
8:15 AM 68.0 °F - 66.2 °F 94% 30.24 in 10.0 mi NNE 5.8 mph - N/A   Clear
8:35 AM 69.8 °F - 64.4 °F 83% 30.25 in 10.0 mi NNE 5.8 mph - N/A   Clear
8:55 AM 71.6 °F - 66.2 °F 83% 30.25 in 10.0 mi NNE 4.6 mph - N/A   Scattered Clouds
9:15 AM 73.4 °F - 64.4 °F 73% 30.25 in 10.0 mi NNE 8.1 mph - N/A   Scattered Clouds
9:35 AM 75.2 °F - 66.2 °F 73% 30.25 in 10.0 mi NE 6.9 mph - N/A   Scattered Clouds
9:55 AM 75.2 °F - 66.2 °F 73% 30.25 in 10.0 mi NE 5.8 mph - N/A   Clear
10:15 AM 77.0 °F - 66.2 °F 69% 30.26 in 7.0 mi ENE 4.6 mph - N/A   Clear
10:35 AM 78.8 °F - 66.2 °F 65% 30.26 in 10.0 mi ENE 8.1 mph - N/A   Clear
10:55 AM 78.8 °F - 66.2 °F 65% 30.26 in 7.0 mi ENE 8.1 mph - N/A   Clear
11:15 AM 80.6 °F 82.7 °F 66.2 °F 61% 30.26 in 10.0 mi NNE 8.1 mph - N/A   Clear
11:35 AM 80.6 °F 83.2 °F 68.0 °F 65% 30.26 in 10.0 mi ENE 9.2 mph - N/A   Clear
11:55 AM 80.6 °F 83.2 °F 68.0 °F 65% 30.27 in 10.0 mi NE 8.1 mph - N/A   Clear
12:15 PM 80.6 °F 83.2 °F 68.0 °F 65% 30.26 in 10.0 mi NNE 8.1 mph - N/A   Clear
12:35 PM 82.4 °F 85.4 °F 68.0 °F 62% 30.26 in 10.0 mi East 4.6 mph - N/A   Clear
12:55 PM 82.4 °F 86.3 °F 69.8 °F 66% 30.25 in 10.0 mi NE 4.6 mph - N/A   Scattered Clouds
1:15 PM 82.4 °F 86.3 °F 69.8 °F 66% 30.25 in 10.0 mi NNE 6.9 mph - N/A   Mostly Cloudy
1:35 PM 84.2 °F 88.4 °F 69.8 °F 62% 30.24 in 10.0 mi ENE 3.5 mph - N/A   Mostly Cloudy
1:55 PM 80.6 °F 83.9 °F 69.8 °F 70% 30.23 in 7.0 mi North 4.6 mph - N/A   Overcast
2:15 PM 84.2 °F 88.4 °F 69.8 °F 62% 30.23 in 10.0 mi North 4.6 mph - N/A   Mostly Cloudy
2:35 PM 82.4 °F 86.3 °F 69.8 °F 66% 30.22 in 10.0 mi NNE 3.5 mph - N/A   Mostly Cloudy
2:55 PM 82.4 °F 85.4 °F 68.0 °F 62% 30.21 in 10.0 mi North 4.6 mph - N/A   Scattered Clouds
3:15 PM 84.2 °F 88.4 °F 69.8 °F 62% 30.20 in 7.0 mi North 6.9 mph - N/A   Scattered Clouds
3:35 PM 84.2 °F 88.4 °F 69.8 °F 62% 30.19 in 7.0 mi NNE 5.8 mph - N/A   Clear
3:55 PM 84.2 °F 88.4 °F 69.8 °F 62% 30.18 in 10.0 mi NNW 8.1 mph - N/A   Clear
4:15 PM 84.2 °F 88.4 °F 69.8 °F 62% 30.17 in 10.0 mi NNE 4.6 mph - N/A   Clear
4:35 PM 84.2 °F 88.4 °F 69.8 °F 62% 30.16 in 7.0 mi North 5.8 mph - N/A   Clear
4:55 PM 84.2 °F 88.4 °F 69.8 °F 62% 30.16 in 10.0 mi North 5.8 mph - N/A   Clear
5:15 PM 84.2 °F 88.4 °F 69.8 °F 62% 30.16 in 7.0 mi NNE 3.5 mph - N/A   Clear
5:35 PM 84.2 °F 88.4 °F 69.8 °F 62% 30.15 in 10.0 mi NNW 3.5 mph - N/A   Clear
5:55 PM 84.2 °F 88.4 °F 69.8 °F 62% 30.14 in 10.0 mi North 3.5 mph - N/A   Clear
6:15 PM 84.2 °F 87.3 °F 68.0 °F 58% 30.14 in 7.0 mi Calm Calm - N/A   Clear
6:35 PM 82.4 °F 85.4 °F 68.0 °F 62% 30.14 in 10.0 mi North 4.6 mph - N/A   Clear
6:55 PM 82.4 °F 85.4 °F 68.0 °F 62% 30.14 in 10.0 mi Calm Calm - N/A   Clear
7:15 PM 80.6 °F 83.2 °F 68.0 °F 65% 30.14 in 10.0 mi Calm Calm - N/A   Clear
7:35 PM 78.8 °F - 68.0 °F 69% 30.14 in 10.0 mi Calm Calm - N/A   Clear
7:55 PM 77.0 °F - 69.8 °F 78% 30.14 in 7.0 mi Calm Calm - N/A   Clear
8:15 PM 77.0 °F - 69.8 °F 78% 30.14 in 10.0 mi Calm Calm - N/A   Clear
8:35 PM 77.0 °F - 69.8 °F 78% 30.14 in 10.0 mi SSE 4.6 mph - N/A   Scattered Clouds
8:55 PM 77.0 °F - 69.8 °F 78% 30.14 in 10.0 mi Calm Calm - N/A   Mostly Cloudy
9:15 PM 75.2 °F - 69.8 °F 83% 30.15 in 10.0 mi Calm Calm - N/A   Scattered Clouds
9:35 PM 73.4 °F - 69.8 °F 88% 30.15 in 10.0 mi Calm Calm - N/A   Scattered Clouds
9:55 PM 71.6 °F - 69.8 °F 94% 30.15 in 10.0 mi Calm Calm - N/A   Scattered Clouds
10:15 PM 71.6 °F - 69.8 °F 94% 30.16 in 10.0 mi Calm Calm - N/A   Scattered Clouds
10:35 PM 71.6 °F - 71.6 °F 100% 30.16 in 7.0 mi Calm Calm - N/A   Mostly Cloudy
10:55 PM 71.6 °F - 69.8 °F 94% 30.16 in 10.0 mi Calm Calm - N/A   Scattered Clouds
11:15 PM 69.8 °F - 69.8 °F 100% 30.16 in 10.0 mi Calm Calm - N/A   Scattered Clouds
11:35 PM 69.8 °F - 69.8 °F 100% 30.16 in 10.0 mi Calm Calm - N/A   Clear
11:55 PM 69.8 °F - 69.8 °F 100% 30.16 in 10.0 mi Calm Calm - N/A   Clear